| time (UTC) | temp F | wind direction | speed MPH | gust MPH | rain 1hr in | rain 24hr in | rain mn in | humidity % | barometer mb |
| 20260903215914 | 80 | 4 | 0.0 | 3.0 | 0.00 | 0.09 | 0.09 | 91 | 1008.6 |
| 20260903215414 | 80 | 57 | 0.0 | 3.0 | 0.00 | 0.09 | 0.09 | 92 | 1008.7 |
| 20260903214921 | 80 | 68 | 1.0 | 2.0 | 0.00 | 0.09 | 0.09 | 92 | 1008.8 |
| 20260903214915 | 80 | 67 | 1.0 | 2.0 | 0.00 | 0.09 | 0.09 | 92 | 1008.7 |
| 20260903213909 | 80 | 17 | 0.0 | 2.0 | 0.00 | 0.09 | 0.09 | 92 | 1008.9 |
| 20260903213640 | 80 | 75 | 0.0 | 2.0 | 0.00 | 0.09 | 0.09 | 92 | 1008.9 |
| 20260903212910 | 80 | 71 | 1.0 | 3.0 | 0.01 | 0.09 | 0.09 | 92 | 1009.3 |
| 20260903212408 | 80 | 86 | 1.0 | 3.0 | 0.01 | 0.09 | 0.09 | 92 | 1009.6 |
| 20260903211908 | 80 | 17 | 1.0 | 5.0 | 0.01 | 0.09 | 0.09 | 93 | 1009.6 |
| 20260903211633 | 80 | 136 | 1.0 | 5.0 | 0.02 | 0.09 | 0.09 | 93 | 1009.5 |
| 20260903210903 | 80 | 77 | 1.0 | 3.0 | 0.02 | 0.09 | 0.09 | 93 | 1009.4 |
| 20260903210403 | 80 | 98 | 2.0 | 3.0 | 0.02 | 0.09 | 0.09 | 93 | 1009.5 |
| 20260903210134 | 80 | 91 | 1.0 | 3.0 | 0.02 | 0.09 | 0.09 | 93 | 1009.6 |
| 20260903205402 | 79 | 84 | 0.0 | 2.0 | 0.02 | 0.09 | 0.09 | 93 | 1009.3 |
| 20260903205135 | 79 | 296 | 0.0 | 1.0 | 0.02 | 0.09 | 0.09 | 93 | 1009.1 |
| 20260903204358 | 79 | 11 | 0.0 | 3.0 | 0.02 | 0.09 | 0.09 | 92 | 1009.0 |
| 20260903203900 | 79 | 276 | 0.0 | 3.0 | 0.02 | 0.09 | 0.09 | 92 | 1009.1 |
| 20260903203359 | 80 | 242 | 1.0 | 3.0 | 0.02 | 0.09 | 0.09 | 91 | 1009.2 |
| 20260903202900 | 80 | 268 | 1.0 | 3.0 | 0.01 | 0.08 | 0.09 | 90 | 1009.3 |
| 20260903202630 | 80 | 310 | 1.0 | 3.0 | 0.01 | 0.08 | 0.08 | 91 | 1009.3 |
| 20260903201900 | 80 | 273 | 1.0 | 5.0 | 0.01 | 0.08 | 0.08 | 90 | 1009.3 |
| 20260903201354 | 80 | 354 | 1.0 | 5.0 | 0.00 | 0.07 | 0.07 | 91 | 1009.4 |
| 20260903200855 | 80 | 319 | 1.0 | 4.0 | 0.00 | 0.07 | 0.07 | 92 | 1009.5 |
| 20260903200356 | 80 | 263 | 1.0 | 3.0 | 0.00 | 0.07 | 0.07 | 92 | 1009.6 |
| 20260903195854 | 80 | 304 | 1.0 | 2.0 | 0.00 | 0.07 | 0.07 | 93 | 1009.5 |
| 20260903195354 | 80 | 251 | 1.0 | 2.0 | 0.01 | 0.07 | 0.07 | 93 | 1009.5 |
| 20260903194856 | 80 | 245 | 1.0 | 2.0 | 0.01 | 0.07 | 0.07 | 93 | 1009.6 |
| 20260903194351 | 80 | 240 | 1.0 | 4.0 | 0.05 | 0.07 | 0.07 | 93 | 1009.6 |
| 20260903193851 | 80 | 248 | 1.0 | 4.0 | 0.06 | 0.07 | 0.07 | 93 | 1009.7 |
| 20260903193350 | 80 | 268 | 0.0 | 2.0 | 0.06 | 0.07 | 0.07 | 94 | 1009.7 |
| 20260903192850 | 80 | 309 | 0.0 | 1.0 | 0.07 | 0.07 | 0.07 | 93 | 1009.7 |
| 20260903192350 | 80 | 65 | 0.0 | 1.0 | 0.07 | 0.07 | 0.07 | 94 | 1009.7 |
| 20260903191852 | 79 | 65 | 0.0 | 2.0 | 0.07 | 0.07 | 0.07 | 94 | 1009.6 |
| 20260903191347 | 79 | 12 | 0.0 | 2.0 | 0.07 | 0.07 | 0.07 | 94 | 1009.6 |
| 20260903190847 | 79 | 98 | 0.0 | 1.0 | 0.07 | 0.07 | 0.07 | 93 | 1009.7 |
| 20260903190346 | 79 | 103 | 0.0 | 1.0 | 0.07 | 0.07 | 0.07 | 93 | 1009.7 |
| 20260903185848 | 79 | 70 | 0.0 | 1.0 | 0.07 | 0.07 | 0.07 | 93 | 1009.4 |
| 20260903185350 | 79 | 70 | 1.0 | 3.0 | 0.06 | 0.06 | 0.06 | 92 | 1009.3 |
| 20260903184848 | 79 | 70 | 1.0 | 3.0 | 0.05 | 0.05 | 0.06 | 91 | 1009.6 |
| 20260903184343 | 79 | 117 | 0.0 | 3.0 | 0.02 | 0.02 | 0.03 | 89 | 1009.7 |
| 20260903183843 | 79 | 113 | 1.0 | 4.0 | 0.01 | 0.01 | 0.02 | 89 | 1009.7 |
| 20260903183343 | 80 | 96 | 2.0 | 6.0 | 0.01 | 0.01 | 0.01 | 86 | 1009.7 |
| 20260903182842 | 80 | 84 | 3.0 | 11.0 | 0.00 | 0.00 | 0.00 | 84 | 1009.8 |
| 20260903182343 | 81 | 108 | 4.0 | 11.0 | 0.00 | 0.00 | 0.00 | 81 | 1009.8 |
| 20260903181843 | 82 | 89 | 5.0 | 14.0 | 0.00 | 0.00 | 0.00 | 82 | 1010.0 |
| 20260903181620 | 85 | 40 | 4.0 | 13.0 | 0.00 | 0.00 | 0.00 | 77 | 1010.0 |
| 20260903181343 | 83 | 98 | 6.0 | 14.0 | 0.00 | 0.00 | 0.00 | 79 | 1009.9 |
| 20260903180343 | 86 | 78 | 2.0 | 9.0 | 0.00 | 0.00 | 0.00 | 76 | 1010.0 |
| 20260903175843 | 86 | 72 | 1.0 | 4.0 | 0.00 | 0.00 | 0.00 | 75 | 1010.1 |
| 20260903175342 | 86 | 59 | 1.0 | 3.0 | 0.00 | 0.00 | 0.00 | 73 | 1009.9 |
| 20260903174839 | 87 | 312 | 2.0 | 9.0 | 0.00 | 0.00 | 0.00 | 71 | 1009.8 |
| 20260903174336 | 88 | 296 | 2.0 | 9.0 | 0.00 | 0.00 | 0.00 | 69 | 1010.0 |
| 20260903173837 | 88 | 326 | 1.0 | 8.0 | 0.00 | 0.00 | 0.00 | 69 | 1009.8 |
| 20260903173337 | 88 | 270 | 3.0 | 8.0 | 0.00 | 0.00 | 0.00 | 68 | 1009.5 |
| 20260903172837 | 88 | 256 | 4.0 | 9.0 | 0.00 | 0.00 | 0.00 | 66 | 1009.7 |
| 20260903172331 | 90 | 247 | 2.0 | 9.0 | 0.00 | 0.00 | 0.00 | 67 | 1009.8 |
| 20260903171828 | 91 | 258 | 1.0 | 3.0 | 0.00 | 0.00 | 0.00 | 72 | 1009.8 |
| 20260903171327 | 91 | 301 | 1.0 | 3.0 | 0.00 | 0.00 | 0.00 | 73 | 1009.8 |
| 20260903170825 | 91 | 35 | 2.0 | 6.0 | 0.00 | 0.00 | 0.00 | 73 | 1009.9 |
| 20260903170325 | 91 | 288 | 3.0 | 6.0 | 0.00 | 0.00 | 0.00 | 72 | 1010.0 |
| 20260903165819 | 92 | 325 | 3.0 | 7.0 | 0.00 | 0.00 | 0.00 | 71 | 1010.0 |
| 20260903165321 | 92 | 269 | 3.0 | 7.0 | 0.00 | 0.00 | 0.00 | 70 | 1010.1 |
| 20260903164818 | 93 | 309 | 2.0 | 5.0 | 0.00 | 0.00 | 0.00 | 69 | 1010.1 |
| 20260903164320 | 94 | 252 | 2.0 | 6.0 | 0.00 | 0.00 | 0.00 | 62 | 1010.1 |
| 20260903164049 | 94 | 229 | 2.0 | 6.0 | 0.00 | 0.00 | 0.00 | 65 | 1010.0 |
| 20260903163321 | 94 | 232 | 1.0 | 5.0 | 0.00 | 0.00 | 0.00 | 64 | 1010.0 |
| 20260903162814 | 94 | 87 | 1.0 | 4.0 | 0.00 | 0.00 | 0.00 | 65 | 1009.9 |
| 20260903162312 | 93 | 264 | 2.0 | 5.0 | 0.00 | 0.00 | 0.00 | 68 | 1010.0 |
| 20260903162045 | 91 | 194 | 2.0 | 6.0 | 0.00 | 0.00 | 0.00 | 70 | 1010.0 |
| 20260903161310 | 91 | 282 | 3.0 | 6.0 | 0.00 | 0.00 | 0.00 | 71 | 1010.0 |
| 20260903160810 | 92 | 281 | 3.0 | 6.0 | 0.00 | 0.00 | 0.00 | 72 | 1010.1 |
| 20260903160542 | 92 | 290 | 2.0 | 6.0 | 0.00 | 0.00 | 0.00 | 70 | 1010.1 |
| 20260903155811 | 92 | 263 | 2.0 | 7.0 | 0.00 | 0.00 | 0.00 | 71 | 1010.1 |
| 20260903155309 | 91 | 190 | 2.0 | 7.0 | 0.00 | 0.00 | 0.00 | 74 | 1010.1 |
| 20260903155037 | 90 | 319 | 2.0 | 4.0 | 0.00 | 0.00 | 0.00 | 75 | 1010.1 |
| 20260903154540 | 90 | 214 | 2.0 | 6.0 | 0.00 | 0.00 | 0.00 | 75 | 1010.1 |
| 20260903153804 | 90 | 252 | 2.0 | 6.0 | 0.00 | 0.00 | 0.00 | 75 | 1010.2 |
| 20260903153305 | 91 | 165 | 2.0 | 6.0 | 0.00 | 0.00 | 0.00 | 76 | 1010.2 |
| 20260903153034 | 91 | 283 | 1.0 | 6.0 | 0.00 | 0.00 | 0.00 | 75 | 1010.2 |
| 20260903152306 | 91 | 98 | 1.0 | 5.0 | 0.00 | 0.00 | 0.00 | 74 | 1010.2 |
| 20260903151754 | 91 | 152 | 2.0 | 5.0 | 0.00 | 0.00 | 0.00 | 75 | 1010.2 |
| 20260903151254 | 91 | 255 | 1.0 | 5.0 | 0.00 | 0.00 | 0.00 | 77 | 1010.2 |
| 20260903150756 | 90 | 70 | 1.0 | 7.0 | 0.00 | 0.00 | 0.00 | 77 | 1010.2 |
| 20260903150256 | 90 | 96 | 1.0 | 7.0 | 0.00 | 0.00 | 0.00 | 77 | 1010.2 |
| 20260903145753 | 89 | 81 | 1.0 | 5.0 | 0.00 | 0.00 | 0.00 | 78 | 1010.2 |
| 20260903145253 | 89 | 95 | 1.0 | 5.0 | 0.00 | 0.00 | 0.00 | 79 | 1010.3 |
| 20260903145022 | 88 | 103 | 1.0 | 7.0 | 0.00 | 0.00 | 0.00 | 81 | 1010.3 |
| 20260903144250 | 87 | 106 | 1.0 | 7.0 | 0.00 | 0.00 | 0.00 | 82 | 1010.3 |
| 20260903143751 | 86 | 23 | 1.0 | 5.0 | 0.00 | 0.00 | 0.00 | 83 | 1010.4 |
| 20260903143520 | 86 | 203 | 0.0 | 5.0 | 0.00 | 0.00 | 0.00 | 83 | 1010.4 |
| 20260903142748 | 86 | 219 | 0.0 | 4.0 | 0.00 | 0.00 | 0.00 | 84 | 1010.4 |
| 20260903142247 | 85 | 224 | 1.0 | 4.0 | 0.00 | 0.00 | 0.00 | 84 | 1010.4 |
| 20260903141744 | 85 | 42 | 0.0 | 3.0 | 0.00 | 0.00 | 0.00 | 85 | 1010.4 |
| 20260903141517 | 85 | 174 | 0.0 | 4.0 | 0.00 | 0.00 | 0.00 | 85 | 1010.4 |
| 20260903140744 | 84 | 129 | 0.0 | 4.0 | 0.00 | 0.00 | 0.00 | 85 | 1010.4 |
| 20260903140244 | 84 | 243 | 0.0 | 2.0 | 0.00 | 0.00 | 0.00 | 86 | 1010.5 |
| 20260903135746 | 84 | 184 | 0.0 | 3.0 | 0.00 | 0.00 | 0.00 | 86 | 1010.4 |
| 20260903135244 | 84 | 84 | 0.0 | 3.0 | 0.00 | 0.00 | 0.00 | 87 | 1010.4 |
| 20260903135015 | 83 | 80 | 0.0 | 3.0 | 0.00 | 0.00 | 0.00 | 87 | 1010.4 |
| 20260903134241 | 83 | 266 | 0.0 | 3.0 | 0.00 | 0.00 | 0.00 | 87 | 1010.4 |
| 20260903134011 | 83 | 199 | 1.0 | 3.0 | 0.00 | 0.00 | 0.00 | 88 | 1010.4 |
| 20260903133508 | 83 | 123 | 0.0 | 4.0 | 0.00 | 0.00 | 0.00 | 88 | 1010.4 |
| 20260903132738 | 82 | 101 | 0.0 | 4.0 | 0.00 | 0.00 | 0.00 | 88 | 1010.4 |
| 20260903132510 | 82 | 161 | 0.0 | 2.0 | 0.00 | 0.00 | 0.00 | 89 | 1010.4 |
| 20260903131738 | 82 | 75 | 0.0 | 2.0 | 0.00 | 0.00 | 0.00 | 89 | 1010.3 |
| 20260903131501 | 82 | 72 | 0.0 | 1.0 | 0.00 | 0.00 | 0.00 | 89 | 1010.3 |
| 20260903130729 | 82 | 113 | 0.0 | 1.0 | 0.00 | 0.00 | 0.00 | 89 | 1010.1 |
| 20260903130227 | 82 | 63 | 0.0 | 1.0 | 0.00 | 0.00 | 0.00 | 89 | 1010.1 |
| 20260903125726 | 82 | 63 | 0.0 | 1.0 | 0.00 | 0.00 | 0.00 | 89 | 1010.0 |
| 20260903125225 | 81 | 12 | 0.0 | 1.0 | 0.00 | 0.00 | 0.00 | 90 | 1009.9 |
| 20260903124720 | 81 | 319 | 0.0 | 5.0 | 0.00 | 0.00 | 0.00 | 90 | 1009.9 |
| 20260903124222 | 81 | 311 | 0.0 | 5.0 | 0.00 | 0.00 | 0.00 | 90 | 1009.8 |
| 20260903123721 | 81 | 119 | 0.0 | 1.0 | 0.00 | 0.00 | 0.00 | 90 | 1009.8 |
| 20260903123220 | 81 | 119 | 0.0 | 1.0 | 0.00 | 0.00 | 0.00 | 91 | 1009.7 |
| 20260903122951 | 81 | 150 | 0.0 | 2.0 | 0.00 | 0.00 | 0.00 | 91 | 1009.7 |
| 20260903122222 | 81 | 150 | 0.0 | 2.0 | 0.00 | 0.00 | 0.00 | 91 | 1009.7 |
| 20260903121721 | 81 | 136 | 0.0 | 3.0 | 0.00 | 0.00 | 0.00 | 91 | 1009.7 |
| 20260903121217 | 81 | 143 | 0.0 | 3.0 | 0.00 | 0.00 | 0.00 | 91 | 1009.7 |
| 20260903120716 | 81 | 121 | 0.0 | 0.0 | 0.00 | 0.00 | 0.00 | 91 | 1009.7 |
| 20260903120214 | 81 | 121 | 0.0 | 0.0 | 0.00 | 0.00 | 0.00 | 91 | 1009.7 |
| 20260903115715 | 81 | 121 | 0.0 | 1.0 | 0.00 | 0.00 | 0.00 | 92 | 1009.7 |
| 20260903115215 | 81 | 114 | 0.0 | 1.0 | 0.00 | 0.00 | 0.00 | 92 | 1009.7 |
| 20260903114714 | 81 | 115 | 0.0 | 1.0 | 0.00 | 0.00 | 0.00 | 92 | 1009.7 |
| 20260903114217 | 81 | 114 | 0.0 | 1.0 | 0.00 | 0.00 | 0.00 | 92 | 1009.7 |
| 20260903114209 | 81 | 115 | 0.0 | 1.0 | 0.00 | 0.00 | 0.00 | 92 | 1009.6 |
| 20260903113205 | 81 | 114 | 0.0 | 1.0 | 0.00 | 0.00 | 0.00 | 92 | 1009.7 |
| 20260903112704 | 81 | 114 | 0.0 | 1.0 | 0.00 | 0.00 | 0.00 | 92 | 1009.6 |
| 20260903112203 | 81 | 115 | 0.0 | 1.0 | 0.00 | 0.00 | 0.00 | 92 | 1009.7 |
| 20260903111657 | 81 | 221 | 0.0 | 1.0 | 0.00 | 0.00 | 0.00 | 92 | 1009.6 |
| 20260903111155 | 81 | 221 | 0.0 | 0.0 | 0.00 | 0.00 | 0.00 | 92 | 1009.6 |
| 20260903110654 | 81 | 221 | 0.0 | 1.0 | 0.00 | 0.00 | 0.00 | 92 | 1009.6 |
| 20260903110152 | 81 | 221 | 0.0 | 1.0 | 0.00 | 0.00 | 0.00 | 92 | 1009.6 |
| 20260903105921 | 81 | 221 | 0.0 | 0.0 | 0.00 | 0.00 | 0.00 | 92 | 1009.6 |
| 20260903105145 | 81 | 221 | 0.0 | 0.0 | 0.00 | 0.00 | 0.00 | 92 | 1009.6 |
| 20260903104643 | 81 | 221 | 0.0 | 0.0 | 0.00 | 0.00 | 0.00 | 92 | 1009.5 |
| 20260903104412 | 81 | 221 | 0.0 | 0.0 | 0.00 | 0.00 | 0.00 | 91 | 1009.5 |
| 20260903103909 | 81 | 221 | 0.0 | 0.0 | 0.00 | 0.00 | 0.00 | 91 | 1009.6 |
| 20260903103755 | 81 | 221 | 0.0 | 0.0 | 0.00 | 0.00 | 0.00 | 91 | 1009.5 |
| 20260903102909 | 81 | 221 | 0.0 | 0.0 | 0.00 | 0.00 | 0.00 | 91 | 1009.5 |
| 20260903102137 | 81 | 226 | 0.0 | 1.0 | 0.00 | 0.00 | 0.00 | 91 | 1009.5 |
| 20260903101637 | 81 | 226 | 0.0 | 1.0 | 0.00 | 0.00 | 0.00 | 91 | 1009.5 |
| 20260903101135 | 81 | 226 | 0.0 | 1.0 | 0.00 | 0.00 | 0.00 | 91 | 1009.4 |
| 20260903100633 | 81 | 226 | 0.0 | 1.0 | 0.00 | 0.00 | 0.00 | 91 | 1009.3 |
| 20260903100132 | 81 | 226 | 0.0 | 0.0 | 0.00 | 0.00 | 0.00 | 90 | 1009.3 |
| 20260903095631 | 81 | 226 | 0.0 | 1.0 | 0.00 | 0.00 | 0.00 | 90 | 1009.3 |
| 20260903095129 | 81 | 226 | 0.0 | 1.0 | 0.00 | 0.00 | 0.00 | 90 | 1009.3 |
| 20260903094626 | 81 | 226 | 0.0 | 1.0 | 0.00 | 0.00 | 0.00 | 90 | 1009.3 |
| 20260903094359 | 82 | 226 | 0.0 | 2.0 | 0.00 | 0.00 | 0.00 | 90 | 1009.3 |
| 20260903093858 | 81 | 226 | 0.0 | 2.0 | 0.00 | 0.00 | 0.00 | 90 | 1009.3 |
| 20260903093127 | 82 | 117 | 0.0 | 1.0 | 0.00 | 0.00 | 0.00 | 90 | 1009.4 |
| 20260903092625 | 82 | 117 | 0.0 | 1.0 | 0.00 | 0.00 | 0.00 | 90 | 1009.4 |
| 20260903092123 | 82 | 117 | 0.0 | 1.0 | 0.00 | 0.00 | 0.00 | 90 | 1009.3 |
| 20260903091623 | 82 | 176 | 0.0 | 0.0 | 0.00 | 0.00 | 0.00 | 89 | 1009.3 |
| 20260903091123 | 82 | 177 | 0.0 | 0.0 | 0.00 | 0.00 | 0.00 | 89 | 1009.3 |
| 20260903090621 | 82 | 168 | 0.0 | 0.0 | 0.00 | 0.00 | 0.00 | 89 | 1009.3 |
| 20260903090121 | 82 | 194 | 0.0 | 0.0 | 0.00 | 0.00 | 0.00 | 89 | 1009.2 |
| 20260903085615 | 82 | 194 | 0.0 | 0.0 | 0.00 | 0.00 | 0.00 | 88 | 1009.2 |
| 20260903085113 | 82 | 196 | 0.0 | 1.0 | 0.00 | 0.00 | 0.00 | 88 | 1009.2 |
| 20260903084611 | 82 | 196 | 0.0 | 2.0 | 0.00 | 0.00 | 0.00 | 88 | 1009.2 |
| 20260903084109 | 83 | 219 | 1.0 | 3.0 | 0.00 | 0.00 | 0.00 | 88 | 1009.3 |
| 20260903083608 | 83 | 78 | 1.0 | 5.0 | 0.00 | 0.00 | 0.00 | 88 | 1009.3 |
| 20260903083105 | 83 | 124 | 0.0 | 5.0 | 0.00 | 0.00 | 0.00 | 88 | 1009.1 |
| 20260903082604 | 83 | 83 | 0.0 | 3.0 | 0.00 | 0.00 | 0.00 | 88 | 1009.1 |
| 20260903082104 | 83 | 111 | 0.0 | 3.0 | 0.00 | 0.00 | 0.00 | 88 | 1009.3 |
| 20260903081611 | 83 | 160 | 0.0 | 3.0 | 0.00 | 0.00 | 0.00 | 88 | 1009.2 |
| 20260903081605 | 83 | 138 | 0.0 | 1.0 | 0.00 | 0.00 | 0.00 | 88 | 1009.2 |
| 20260903080603 | 83 | 107 | 0.0 | 3.0 | 0.00 | 0.00 | 0.00 | 88 | 1009.2 |
| 20260903080057 | 83 | 146 | 0.0 | 2.0 | 0.00 | 0.00 | 0.00 | 88 | 1009.2 |
| 20260903075825 | 83 | 96 | 0.0 | 3.0 | 0.00 | 0.00 | 0.00 | 88 | 1009.1 |
| 20260903075053 | 83 | 131 | 0.0 | 3.0 | 0.00 | 0.00 | 0.00 | 88 | 1009.0 |
| 20260903074552 | 83 | 146 | 0.0 | 3.0 | 0.00 | 0.00 | 0.00 | 88 | 1009.1 |
| 20260903074325 | 83 | 244 | 0.0 | 3.0 | 0.00 | 0.00 | 0.00 | 88 | 1009.1 |
| 20260903073553 | 83 | 221 | 0.0 | 4.0 | 0.00 | 0.00 | 0.00 | 88 | 1009.1 |
| 20260903073056 | 83 | 137 | 0.0 | 2.0 | 0.00 | 0.00 | 0.00 | 88 | 1009.2 |
| 20260903073051 | 83 | 80 | 0.0 | 4.0 | 0.00 | 0.00 | 0.00 | 88 | 1009.1 |
| 20260903072049 | 83 | 94 | 0.0 | 2.0 | 0.00 | 0.00 | 0.00 | 88 | 1009.3 |
| 20260903071549 | 83 | 133 | 0.0 | 3.0 | 0.00 | 0.00 | 0.00 | 88 | 1009.4 |
| 20260903071047 | 83 | 125 | 0.0 | 3.0 | 0.00 | 0.00 | 0.00 | 88 | 1009.5 |
| 20260903070547 | 83 | 113 | 0.0 | 3.0 | 0.00 | 0.00 | 0.00 | 87 | 1009.5 |
| 20260903070045 | 83 | 200 | 0.0 | 3.0 | 0.00 | 0.00 | 0.00 | 87 | 1009.6 |
| 20260903065544 | 83 | 131 | 0.0 | 5.0 | 0.00 | 0.00 | 0.00 | 87 | 1009.7 |
| 20260903065045 | 83 | 183 | 1.0 | 5.0 | 0.00 | 0.00 | 0.00 | 87 | 1009.8 |
| 20260903064813 | 83 | 172 | 1.0 | 6.0 | 0.00 | 0.00 | 0.00 | 87 | 1009.8 |
| 20260903064043 | 83 | 145 | 1.0 | 6.0 | 0.00 | 0.00 | 0.00 | 88 | 1009.8 |
| 20260903063540 | 83 | 133 | 0.0 | 4.0 | 0.00 | 0.00 | 0.00 | 88 | 1009.8 |
| 20260903063037 | 83 | 77 | 0.0 | 5.0 | 0.00 | 0.00 | 0.00 | 88 | 1009.8 |
| 20260903062535 | 83 | 155 | 1.0 | 5.0 | 0.00 | 0.00 | 0.00 | 88 | 1009.8 |
| 20260903062032 | 83 | 114 | 1.0 | 2.0 | 0.00 | 0.00 | 0.00 | 88 | 1009.8 |
| 20260903061801 | 83 | 105 | 1.0 | 3.0 | 0.00 | 0.00 | 0.00 | 88 | 1009.9 |
| 20260903061028 | 83 | 59 | 1.0 | 3.0 | 0.00 | 0.00 | 0.00 | 88 | 1010.0 |
| 20260903060529 | 83 | 113 | 0.0 | 2.0 | 0.00 | 0.00 | 0.00 | 88 | 1010.0 |
| 20260903060029 | 83 | 137 | 0.0 | 1.0 | 0.00 | 0.00 | 0.00 | 88 | 1010.1 |
| 20260903055526 | 83 | 172 | 0.0 | 0.0 | 0.00 | 0.00 | 0.00 | 88 | 1010.2 |
| 20260903055026 | 82 | 172 | 0.0 | 2.0 | 0.00 | 0.00 | 0.00 | 88 | 1010.2 |
| 20260903054527 | 83 | 172 | 0.0 | 2.0 | 0.00 | 0.00 | 0.00 | 88 | 1010.2 |
| 20260903054257 | 83 | 113 | 0.0 | 2.0 | 0.00 | 0.00 | 0.00 | 88 | 1010.2 |
| 20260903053757 | 83 | 120 | 0.0 | 2.0 | 0.00 | 0.00 | 0.00 | 88 | 1010.2 |
| 20260903053022 | 83 | 115 | 0.0 | 2.0 | 0.00 | 0.00 | 0.00 | 88 | 1010.2 |
| 20260903052522 | 83 | 76 | 0.0 | 2.0 | 0.00 | 0.00 | 0.00 | 88 | 1010.3 |
| 20260903052021 | 83 | 105 | 0.0 | 2.0 | 0.00 | 0.00 | 0.00 | 88 | 1010.3 |
| 20260903051522 | 83 | 103 | 1.0 | 3.0 | 0.00 | 0.00 | 0.00 | 88 | 1010.3 |
| 20260903051023 | 83 | 91 | 1.0 | 3.0 | 0.00 | 0.00 | 0.00 | 88 | 1010.4 |
| 20260903050754 | 83 | 87 | 1.0 | 3.0 | 0.00 | 0.00 | 0.00 | 88 | 1010.5 |
| 20260903050023 | 83 | 96 | 0.0 | 3.0 | 0.00 | 0.00 | 0.00 | 88 | 1010.4 |
| 20260903045522 | 83 | 117 | 1.0 | 2.0 | 0.00 | 0.00 | 0.00 | 88 | 1010.4 |
| 20260903045017 | 83 | 94 | 1.0 | 3.0 | 0.00 | 0.00 | 0.00 | 88 | 1010.4 |
| 20260903044749 | 83 | 138 | 1.0 | 3.0 | 0.00 | 0.00 | 0.00 | 88 | 1010.4 |
| 20260903044018 | 83 | 115 | 1.0 | 3.0 | 0.00 | 0.00 | 0.00 | 88 | 1010.4 |
| 20260903043518 | 83 | 97 | 1.0 | 3.0 | 0.00 | 0.00 | 0.00 | 88 | 1010.4 |
| 20260903043248 | 83 | 61 | 1.0 | 3.0 | 0.00 | 0.00 | 0.00 | 88 | 1010.4 |
| 20260903042516 | 83 | 91 | 2.0 | 4.0 | 0.00 | 0.00 | 0.00 | 88 | 1010.3 |
| 20260903042013 | 83 | 90 | 2.0 | 4.0 | 0.00 | 0.00 | 0.00 | 88 | 1010.2 |
| 20260903041511 | 83 | 85 | 1.0 | 6.0 | 0.00 | 0.00 | 0.00 | 88 | 1010.2 |
| 20260903041011 | 83 | 96 | 1.0 | 6.0 | 0.00 | 0.00 | 0.00 | 88 | 1010.2 |
| 20260903040512 | 83 | 91 | 1.0 | 6.0 | 0.00 | 0.00 | 0.00 | 88 | 1010.2 |
| 20260903040010 | 83 | 96 | 1.0 | 6.0 | 0.00 | 0.00 | 0.00 | 88 | 1010.2 |
| 20260903035510 | 83 | 101 | 1.0 | 5.0 | 0.00 | 0.00 | 0.00 | 88 | 1010.2 |
| 20260903035240 | 83 | 126 | 1.0 | 4.0 | 0.00 | 0.00 | 0.00 | 88 | 1010.1 |
| 20260903034505 | 83 | 63 | 2.0 | 5.0 | 0.00 | 0.00 | 0.00 | 88 | 1010.2 |
| 20260903034004 | 83 | 82 | 2.0 | 5.0 | 0.00 | 0.00 | 0.00 | 88 | 1010.0 |
| 20260903033506 | 83 | 109 | 2.0 | 4.0 | 0.00 | 0.00 | 0.00 | 87 | 1010.1 |
| 20260903033004 | 83 | 83 | 1.0 | 4.0 | 0.00 | 0.00 | 0.00 | 87 | 1010.1 |
| 20260903032504 | 83 | 130 | 1.0 | 5.0 | 0.00 | 0.00 | 0.00 | 87 | 1010.1 |
| 20260903031959 | 84 | 90 | 1.0 | 5.0 | 0.00 | 0.00 | 0.00 | 86 | 1010.1 |
| 20260903031500 | 84 | 97 | 2.0 | 5.0 | 0.00 | 0.00 | 0.00 | 86 | 1010.1 |
| 20260903030957 | 84 | 98 | 2.0 | 7.0 | 0.00 | 0.00 | 0.00 | 86 | 1010.1 |
| 20260903030459 | 84 | 142 | 3.0 | 9.0 | 0.00 | 0.00 | 0.00 | 86 | 1009.9 |
| 20260903025958 | 84 | 143 | 2.0 | 9.0 | 0.00 | 0.00 | 0.00 | 86 | 1009.6 |
| 20260903025500 | 84 | 162 | 2.0 | 9.0 | 0.00 | 0.00 | 0.00 | 86 | 1009.5 |
| 20260903024952 | 84 | 131 | 2.0 | 9.0 | 0.00 | 0.00 | 0.00 | 86 | 1009.3 |
| 20260903024451 | 85 | 101 | 2.0 | 8.0 | 0.00 | 0.00 | 0.00 | 85 | 1009.3 |
| 20260903024226 | 85 | 153 | 2.0 | 8.0 | 0.00 | 0.00 | 0.00 | 85 | 1009.3 |
| 20260903023724 | 85 | 104 | 2.0 | 7.0 | 0.00 | 0.00 | 0.00 | 85 | 1009.3 |
| 20260903022953 | 85 | 91 | 1.0 | 6.0 | 0.00 | 0.00 | 0.00 | 85 | 1009.1 |
| 20260903022452 | 85 | 276 | 1.0 | 11.0 | 0.00 | 0.00 | 0.00 | 84 | 1009.1 |
| 20260903021949 | 85 | 148 | 2.0 | 13.0 | 0.00 | 0.00 | 0.00 | 84 | 1009.0 |
| 20260903021449 | 85 | 111 | 2.0 | 13.0 | 0.00 | 0.00 | 0.00 | 84 | 1008.9 |
| 20260903020949 | 85 | 66 | 2.0 | 8.0 | 0.00 | 0.00 | 0.00 | 83 | 1008.9 |
| 20260903020449 | 85 | 209 | 3.0 | 10.0 | 0.00 | 0.00 | 0.00 | 82 | 1008.7 |
| 20260903015950 | 85 | 108 | 2.0 | 10.0 | 0.00 | 0.00 | 0.00 | 81 | 1008.7 |
| 20260903015450 | 85 | 220 | 2.0 | 10.0 | 0.00 | 0.00 | 0.00 | 80 | 1008.6 |
| 20260903014950 | 85 | 127 | 2.0 | 10.0 | 0.00 | 0.00 | 0.00 | 80 | 1008.5 |
| 20260903014717 | 85 | 95 | 2.0 | 8.0 | 0.00 | 0.00 | 0.00 | 79 | 1008.5 |
| 20260903013946 | 85 | 124 | 2.0 | 7.0 | 0.00 | 0.00 | 0.00 | 79 | 1008.5 |
| 20260903013445 | 86 | 108 | 2.0 | 10.0 | 0.00 | 0.00 | 0.00 | 78 | 1008.4 |
| 20260903012944 | 86 | 181 | 2.0 | 10.0 | 0.00 | 0.00 | 0.00 | 77 | 1008.5 |
| 20260903012716 | 86 | 140 | 2.0 | 11.0 | 0.00 | 0.00 | 0.00 | 76 | 1008.4 |
| 20260903011944 | 86 | 166 | 2.0 | 11.0 | 0.00 | 0.00 | 0.00 | 76 | 1008.5 |
| 20260903011438 | 86 | 149 | 2.0 | 9.0 | 0.00 | 0.00 | 0.00 | 76 | 1008.5 |
| 20260903011208 | 86 | 238 | 2.0 | 9.0 | 0.00 | 0.00 | 0.00 | 75 | 1008.4 |
| 20260903010435 | 87 | 108 | 2.0 | 7.0 | 0.00 | 0.00 | 0.00 | 75 | 1008.5 |
| 20260903005932 | 87 | 124 | 2.0 | 8.0 | 0.00 | 0.00 | 0.00 | 74 | 1008.4 |
| 20260903005432 | 87 | 136 | 2.0 | 10.0 | 0.00 | 0.00 | 0.00 | 73 | 1008.3 |
| 20260903004930 | 87 | 162 | 2.0 | 10.0 | 0.00 | 0.00 | 0.00 | 72 | 1008.4 |
| 20260903004429 | 87 | 107 | 2.0 | 6.0 | 0.00 | 0.00 | 0.00 | 72 | 1008.4 |
| 20260903004158 | 88 | 84 | 1.0 | 6.0 | 0.00 | 0.00 | 0.00 | 71 | 1008.3 |
| 20260903003428 | 88 | 114 | 1.0 | 6.0 | 0.00 | 0.00 | 0.00 | 71 | 1008.3 |
| 20260903002927 | 88 | 151 | 1.0 | 6.0 | 0.00 | 0.00 | 0.00 | 70 | 1008.1 |
| 20260903002426 | 89 | 90 | 1.0 | 7.0 | 0.00 | 0.00 | 0.00 | 69 | 1008.0 |
| 20260903001919 | 89 | 115 | 2.0 | 7.0 | 0.00 | 0.00 | 0.00 | 69 | 1007.8 |
| 20260903001421 | 89 | 204 | 2.0 | 10.0 | 0.00 | 0.00 | 0.00 | 68 | 1007.6 |
| 20260903000920 | 89 | 151 | 2.0 | 10.0 | 0.00 | 0.00 | 0.00 | 68 | 1007.6 |
| 20260903000649 | 89 | 163 | 2.0 | 8.0 | 0.00 | 0.00 | 0.00 | 67 | 1007.5 |
| 20260902235919 | 90 | 331 | 2.0 | 10.0 | 0.00 | 0.00 | 0.00 | 67 | 1007.6 |
| 20260902235417 | 90 | 151 | 2.0 | 10.0 | 0.00 | 0.00 | 0.00 | 66 | 1007.6 |
| 20260902235149 | 90 | 114 | 3.0 | 8.0 | 0.00 | 0.00 | 0.00 | 65 | 1007.6 |
| 20260902234642 | 91 | 237 | 2.0 | 8.0 | 0.00 | 0.00 | 0.00 | 64 | 1007.6 |
| 20260902233912 | 91 | 149 | 2.0 | 8.0 | 0.00 | 0.00 | 0.00 | 63 | 1007.7 |
| 20260902233412 | 91 | 122 | 2.0 | 7.0 | 0.00 | 0.00 | 0.00 | 62 | 1007.7 |
| 20260902232913 | 91 | 129 | 1.0 | 7.0 | 0.00 | 0.00 | 0.00 | 61 | 1007.6 |
| 20260902232644 | 92 | 173 | 2.0 | 8.0 | 0.00 | 0.00 | 0.00 | 61 | 1007.6 |
| 20260902231912 | 92 | 234 | 2.0 | 8.0 | 0.00 | 0.00 | 0.00 | 60 | 1007.6 |
| 20260902231407 | 92 | 158 | 2.0 | 8.0 | 0.00 | 0.00 | 0.00 | 60 | 1007.6 |
| 20260902230908 | 92 | 143 | 3.0 | 11.0 | 0.00 | 0.00 | 0.00 | 60 | 1007.6 |
| 20260902230405 | 92 | 103 | 3.0 | 11.0 | 0.00 | 0.00 | 0.00 | 60 | 1007.6 |
| 20260902225909 | 92 | 153 | 3.0 | 11.0 | 0.00 | 0.00 | 0.00 | 60 | 1007.6 |
| 20260902225406 | 93 | 70 | 3.0 | 11.0 | 0.00 | 0.00 | 0.00 | 61 | 1007.7 |
| 20260902224907 | 93 | 133 | 3.0 | 8.0 | 0.00 | 0.00 | 0.00 | 60 | 1007.6 |
| 20260902224400 | 93 | 186 | 2.0 | 8.0 | 0.00 | 0.00 | 0.00 | 60 | 1007.5 |
| 20260902223900 | 94 | 187 | 3.0 | 7.0 | 0.00 | 0.00 | 0.00 | 60 | 1007.5 |
| 20260902223359 | 94 | 216 | 2.0 | 7.0 | 0.00 | 0.00 | 0.00 | 60 | 1007.4 |
| 20260902222905 | 94 | 96 | 2.0 | 7.0 | 0.00 | 0.00 | 0.00 | 59 | 1007.5 |
| 20260902222858 | 94 | 83 | 2.0 | 7.0 | 0.00 | 0.00 | 0.00 | 60 | 1007.5 |
| 20260902222129 | 94 | 205 | 2.0 | 6.0 | 0.00 | 0.00 | 0.00 | 59 | 1007.4 |
| 20260902221351 | 95 | 86 | 2.0 | 8.0 | 0.00 | 0.00 | 0.00 | 59 | 1007.4 |
| 20260902220853 | 95 | 74 | 2.0 | 8.0 | 0.00 | 0.00 | 0.00 | 59 | 1007.4 |
| 20260902220351 | 95 | 107 | 2.0 | 12.0 | 0.00 | 0.00 | 0.00 | 58 | 1007.4 |